User: anonymous   Login
Location: Newark
(27.9675°N, 86.8869°E)
Time: 13:40:16
(UTC+00:00)
Language:

Explorer 11/Cluster Stage 4 - Orbit

View from above orbital plane
View from above orbital plane
View from above satellite
View from above satellite

Ground track
Ground track

The orbit data is extracted from the following two-line orbital elements,

1   107U 61013A   19290.87173841 +.00000284 +00000-0 +20057-4 0  9991
2   107 028.7865 117.0079 0547215 031.0083 332.1640 14.08832059931844
Epoch (UTC): 17 October 2019 20:55:18
Eccentricity: 0.0547215
inclination: 28.7865°
perigee height: 467 km
apogee height: 1259 km
right ascension of ascending node: 117.0079°
argument of perigee: 31.0083°
revolutions per day: 14.08832059
mean anomaly at epoch: 332.1640°
orbit number at epoch: 93184

The dashed part of the orbit path shows where the satellite is in the earth's shadow,  

DLR